HJ3DAG-13 Weather Reports


Display with metric or nautical units.
time (UTC)temp
F
wind
direction
speed
MPH
gust
MPH
rain 1hr
in
rain 24hr
in
rain mn
in
humidity
%
barometer
mb
20260507113050 50 85 5.0 5.0 0.00 0.33 0.00 97 1020.0
20260507112442 50 85 5.0 5.0 0.00 0.33 0.00 97 1020.0
20260507112050 50 85 5.0 5.0 0.00 0.33 0.00 97 1020.0
20260507111049 50 85 5.0 5.0 0.00 0.33 0.00 97 1020.0
20260507110432 50 85 5.0 5.0 0.00 0.33 0.00 96 1020.0
20260507110049 50 85 5.0 5.0 0.00 0.33 0.00 96 1020.0
20260507105432 50 85 5.0 5.0 0.00 0.33 0.00 96 1020.0
20260507105050 50 85 5.0 5.0 0.00 0.33 0.00 96 1020.0
20260507104432 50 85 5.0 5.0 0.00 0.33 0.00 95 1020.0
20260507104050 50 85 5.0 5.0 0.00 0.33 0.00 95 1020.0
20260507103432 50 85 5.0 5.0 0.00 0.33 0.00 95 1020.0
20260507103050 50 85 5.0 5.0 0.00 0.33 0.00 94 1020.0
20260507102049 50 85 5.0 5.0 0.00 0.33 0.00 94 1020.0
20260507101432 50 85 5.0 5.0 0.00 0.33 0.00 93 1020.0
20260507101050 50 85 5.0 5.0 0.00 0.33 0.00 92 1020.0
20260507100432 50 85 5.0 5.0 0.00 0.33 0.00 91 1020.0
20260507100050 50 85 5.0 5.0 0.00 0.33 0.00 91 1020.0
20260507095050 50 85 5.0 5.0 0.00 0.33 0.00 91 1020.0
20260507094432 50 85 5.0 5.0 0.00 0.33 0.00 91 1020.0
20260507094051 50 85 5.0 5.0 0.00 0.33 0.00 91 1020.0
20260507093432 50 85 5.0 5.0 0.00 0.33 0.00 91 1020.0
20260507093050 50 85 5.0 5.0 0.00 0.33 0.00 91 1020.0
20260507092432 50 85 5.0 5.0 0.00 0.33 0.00 91 1020.0
20260507092050 50 85 5.0 5.0 0.00 0.33 0.00 91 1020.0
20260507091432 50 85 5.0 5.0 0.00 0.33 0.00 91 1020.0
20260507091049 53 0 3.0 0.0 0.00 0.33 0.00 94 1020.0
20260507090432 52 350 3.0 0.0 0.00 0.33 0.00 93 1020.0
20260507090050 52 350 3.0 0.0 0.00 0.33 0.00 93 1020.0
20260507085432 52 350 3.0 0.0 0.00 0.33 0.00 92 1020.0
20260507085050 52 350 3.0 0.0 0.00 0.33 0.00 92 1020.0
20260507084432 52 350 3.0 0.0 0.00 0.33 0.00 92 1020.0
20260507084050 52 350 3.0 0.0 0.00 0.33 0.00 92 1020.0
20260507083432 52 350 3.0 0.0 0.00 0.33 0.00 92 1020.0
20260507083050 51 350 3.0 0.0 0.00 0.33 0.00 91 1020.0
20260507082432 51 350 3.0 0.0 0.00 0.33 0.00 91 1020.0
20260507082050 51 350 3.0 0.0 0.00 0.33 0.00 91 1020.0
20260507081049 51 350 3.0 0.0 0.00 0.33 0.00 91 1020.0
20260507080432 51 0 2.0 0.0 0.00 0.33 0.00 91 1020.0
20260507080050 51 0 2.0 0.0 0.00 0.33 0.00 91 1020.0
20260507075432 51 0 2.0 0.0 0.00 0.33 0.00 91 1020.0
20260507075050 51 0 2.0 0.0 0.00 0.33 0.00 91 1020.0
20260507074051 51 0 2.0 0.0 0.00 0.33 0.00 91 1020.0
20260507073050 51 0 2.0 0.0 0.00 0.33 0.00 91 1020.0
20260507072432 51 0 2.0 0.0 0.00 0.33 0.00 91 1021.0
20260507072050 51 0 2.0 0.0 0.00 0.33 0.00 91 1021.0
20260507071432 51 0 2.0 0.0 0.00 0.33 0.00 91 1021.0
20260507071050 51 0 2.0 0.0 0.00 0.33 0.00 91 1021.0
20260507070432 52 60 5.0 0.0 0.00 0.33 0.00 92 1021.0
20260507070050 52 60 5.0 0.0 0.00 0.33 0.00 92 1021.0
20260507065050 53 60 5.0 0.0 0.00 0.33 0.00 92 1021.0
20260507064432 53 60 5.0 0.0 0.00 0.33 0.00 92 1021.0
20260507064050 53 60 5.0 0.0 0.00 0.33 0.00 92 1021.0
20260507063050 53 60 5.0 0.0 0.00 0.33 0.00 91 1021.0
20260507062050 52 60 5.0 0.0 0.00 0.33 0.00 90 1021.0
20260507061050 52 60 5.0 0.0 0.00 0.33 0.00 89 1021.0
20260507060432 52 40 2.0 0.0 0.00 0.47 0.00 89 1021.0
20260507060050 52 40 2.0 0.0 0.00 0.47 0.00 89 1021.0
20260507055050 52 40 2.0 0.0 0.00 0.60 0.00 88 1021.0
20260507054432 52 40 2.0 0.0 0.00 0.60 0.00 88 1021.0
20260507054050 52 40 2.0 0.0 0.00 0.60 0.00 88 1021.0
20260507053432 52 40 2.0 0.0 0.00 0.60 0.00 88 1021.0
20260507053050 52 20 3.0 0.0 0.00 0.60 0.00 87 1021.0
20260507052432 52 20 3.0 0.0 0.00 0.60 0.00 87 1022.0
20260507052051 52 20 3.0 0.0 0.00 0.60 0.00 87 1022.0
20260507051432 52 20 3.0 0.0 0.00 0.60 0.00 86 1022.0
20260507051052 52 20 3.0 0.0 0.00 0.60 0.00 86 1022.0
20260507050432 52 20 3.0 0.0 0.00 0.60 0.00 86 1022.0
20260507050050 52 20 3.0 0.0 0.00 0.60 0.00 85 1022.0
20260507045432 52 20 3.0 0.0 0.00 0.59 0.00 85 1022.0
20260507045050 52 20 3.0 0.0 0.00 0.59 0.00 84 1022.0
20260507044432 52 20 3.0 0.0 0.00 0.59 0.00 83 1022.0
20260507044050 52 20 3.0 0.0 0.00 0.59 0.00 83 1022.0
20260507043432 52 20 3.0 0.0 0.00 0.59 0.00 82 1022.0
20260507043050 52 20 3.0 0.0 0.00 0.59 0.00 82 1022.0
20260507042049 53 20 3.0 0.0 0.00 0.59 0.00 80 1022.0
20260507041050 53 20 3.0 0.0 0.00 0.59 0.00 78 1022.0
20260507040432 54 70 5.0 0.0 0.00 0.59 0.00 71 1022.0
20260507040050 54 70 5.0 0.0 0.00 0.59 0.00 71 1022.0
20260507035432 54 70 5.0 0.0 0.00 0.58 0.00 71 1022.0
20260507035051 54 70 5.0 0.0 0.00 0.58 0.00 71 1022.0
20260507034050 54 70 5.0 0.0 0.00 0.58 0.00 71 1022.0
20260507033432 54 70 5.0 0.0 0.00 0.58 0.00 71 1022.0
20260507033054 54 70 5.0 0.0 0.00 0.58 0.00 71 1022.0
20260507032432 54 70 5.0 0.0 0.00 0.58 0.00 71 1022.0
20260507032051 54 70 5.0 0.0 0.00 0.58 0.00 71 1022.0
20260507031050 54 70 5.0 0.0 0.00 0.58 0.00 71 1022.0
20260507030432 59 110 5.0 0.0 0.00 0.58 0.00 58 1022.0
20260507030050 59 110 5.0 0.0 0.00 0.58 0.00 58 1022.0
20260507025432 59 110 5.0 0.0 0.00 0.57 0.00 58 1022.0
20260507025050 59 110 5.0 0.0 0.00 0.57 0.00 58 1022.0
20260507024050 59 110 5.0 0.0 0.00 0.57 0.00 58 1022.0
20260507023432 59 110 5.0 0.0 0.00 0.57 0.00 58 1022.0
20260507023050 59 110 5.0 0.0 0.00 0.57 0.00 58 1022.0
20260507022050 59 110 5.0 0.0 0.00 0.57 0.00 58 1021.0
20260507021432 59 110 5.0 0.0 0.00 0.57 0.00 58 1021.0
20260507021050 59 110 5.0 0.0 0.00 0.57 0.00 58 1021.0
20260507020432 59 130 8.0 0.0 0.00 0.57 0.00 63 1021.0
20260507020050 59 130 8.0 0.0 0.00 0.57 0.00 63 1021.0
20260507015050 59 130 8.0 0.0 0.00 0.53 0.00 63 1021.0
20260507014432 59 130 8.0 0.0 0.00 0.53 0.00 63 1021.0
20260507014051 59 130 8.0 0.0 0.00 0.53 0.00 63 1021.0
20260507013432 59 130 8.0 0.0 0.00 0.53 0.00 63 1021.0
20260507013050 59 130 8.0 0.0 0.00 0.53 0.00 63 1021.0
20260507012050 59 130 8.0 0.0 0.00 0.53 0.00 63 1020.0
20260507011050 59 130 8.0 0.0 0.00 0.53 0.00 63 1020.0
20260507010432 62 120 6.0 0.0 0.00 0.53 0.00 51 1020.0
20260507010050 62 120 6.0 0.0 0.00 0.53 0.00 51 1020.0
20260507005432 62 120 6.0 0.0 0.00 0.50 0.00 51 1020.0
20260507005050 62 120 6.0 0.0 0.00 0.50 0.00 51 1020.0
20260507004051 62 120 6.0 0.0 0.00 0.50 0.00 51 1019.0
20260507003432 62 120 6.0 0.0 0.00 0.50 0.00 51 1019.0
20260507003050 62 120 6.0 0.0 0.00 0.50 0.00 51 1019.0
20260507002432 62 120 6.0 0.0 0.00 0.50 0.00 51 1018.0
20260507002050 62 120 6.0 0.0 0.00 0.38 0.00 51 1018.0
20260507001433 62 120 6.0 0.0 0.00 0.38 0.00 51 1018.0
20260507001050 62 120 6.0 0.0 0.00 0.38 0.00 51 1018.0
20260507000432 64 130 9.0 0.0 0.00 0.38 0.00 48 1018.0
20260507000050 64 130 9.0 0.0 0.00 0.38 0.00 48 1018.0
20260506235432 64 130 9.0 0.0 0.00 0.35 0.00 48 1018.0
20260506235050 64 130 9.0 0.0 0.00 0.35 0.00 48 1018.0
20260506234432 64 130 9.0 0.0 0.00 0.35 0.00 48 1018.0
20260506234051 64 130 9.0 0.0 0.00 0.35 0.00 48 1018.0
20260506233432 64 130 9.0 0.0 0.00 0.35 0.00 48 1018.0
20260506233050 61 130 9.0 0.0 0.00 0.35 0.00 74 1018.0
20260506232050 60 143 4.0 5.0 0.00 0.35 0.00 85 1016.0
20260506231432 60 143 4.0 5.0 0.00 0.35 0.00 85 1016.0
20260506230432 60 143 4.0 5.0 0.00 0.35 0.00 85 1016.0
20260506230050 60 143 4.0 5.0 0.00 0.35 0.00 85 1016.0
20260506225432 60 143 4.0 5.0 0.00 0.31 0.00 85 1016.0
20260506225051 60 143 4.0 5.0 0.00 0.31 0.00 85 1016.0
20260506224432 60 143 4.0 5.0 0.00 0.31 0.00 85 1016.0
20260506224050 60 143 4.0 5.0 0.00 0.31 0.00 85 1016.0
20260506223051 61 120 13.0 0.0 0.00 0.31 0.00 85 1016.0
20260506222432 62 120 13.0 0.0 0.00 0.31 0.00 85 1014.0
20260506222050 62 120 13.0 0.0 0.00 0.31 0.00 85 1014.0
20260506221050 61 120 13.0 0.0 0.00 0.31 0.00 85 1014.0
20260506220432 62 120 13.0 0.0 0.00 0.31 0.00 85 1014.0
20260506220050 62 120 13.0 0.0 0.00 0.31 0.00 85 1014.0
20260506215432 61 120 13.0 0.0 0.00 0.28 0.00 85 1014.0
20260506215050 61 120 13.0 0.0 0.00 0.28 0.00 85 1014.0
20260506214432 62 120 13.0 0.0 0.00 0.28 0.00 85 1014.0
20260506214051 62 120 13.0 0.0 0.00 0.28 0.00 85 1014.0
20260506213050 61 120 13.0 0.0 0.00 0.28 0.00 85 1014.0
20260506212432 61 120 13.0 0.0 0.00 0.28 0.00 85 1014.0
20260506212050 61 120 13.0 0.0 0.00 0.28 0.00 85 1014.0
20260506211432 61 120 13.0 0.0 0.00 0.28 0.00 85 1013.0
20260506211050 61 120 13.0 0.0 0.00 0.28 0.00 85 1013.0
20260506210432 61 120 13.0 0.0 0.00 0.27 0.00 85 1013.0
20260506210049 61 120 13.0 0.0 0.00 0.27 0.00 85 1013.0
20260506205432 61 120 13.0 0.0 0.00 0.24 0.00 85 1013.0
20260506205050 62 120 13.0 0.0 0.00 0.24 0.00 85 1013.0
20260506204432 63 120 13.0 0.0 0.00 0.24 0.00 85 1013.0
20260506204050 63 120 13.0 0.0 0.00 0.24 0.00 85 1013.0
20260506203050 62 120 13.0 0.0 0.00 0.24 0.00 85 1013.0
20260506202432 61 120 13.0 0.0 0.00 0.24 0.00 85 1014.0
20260506202050 61 120 13.0 0.0 0.00 0.24 0.00 85 1014.0
20260506201050 61 120 13.0 0.0 0.00 0.24 0.00 85 1013.0
20260506200432 62 120 13.0 0.0 0.00 0.24 0.00 84 1013.0
20260506200050 62 120 13.0 0.0 0.00 0.24 0.00 84 1013.0
20260506195432 62 120 13.0 0.0 0.01 0.22 0.01 83 1013.0
20260506195051 63 120 13.0 0.0 0.01 0.22 0.01 80 1013.0
20260506194432 64 120 13.0 0.0 0.01 0.22 0.01 74 1014.0
20260506194052 64 120 13.0 0.0 0.01 0.22 0.01 74 1014.0
20260506193432 64 120 13.0 0.0 0.01 0.22 0.01 75 1014.0
20260506193051 64 120 13.0 0.0 0.01 0.22 0.01 82 1014.0
20260506192432 65 120 13.0 0.0 0.01 0.22 0.01 77 1015.0
20260506192050 64 120 13.0 0.0 0.01 0.22 0.01 80 1015.0
20260506191432 62 158 7.0 10.0 0.01 0.22 0.01 88 1015.0
20260506191055 62 158 7.0 10.0 0.01 0.22 0.01 88 1015.0
20260506190432 61 158 7.0 10.0 0.00 0.21 0.00 88 1015.0
20260506190050 61 158 7.0 10.0 0.00 0.21 0.00 88 1014.0
20260506185432 59 158 7.0 10.0 0.00 0.19 0.00 92 1014.0
20260506185050 59 158 7.0 10.0 0.00 0.19 0.00 92 1014.0
20260506184050 59 158 7.0 10.0 0.00 0.19 0.00 92 1015.0
20260506183432 60 158 7.0 10.0 0.00 0.19 0.00 92 1015.0
20260506183050 60 90 7.0 0.0 0.00 0.19 0.00 92 1015.0
20260506182432 59 90 7.0 0.0 0.00 0.19 0.00 92 1016.0
20260506182050 59 90 7.0 0.0 0.00 0.19 0.00 92 1016.0
20260506181433 58 90 7.0 0.0 0.00 0.19 0.00 92 1016.0
20260506181050 59 90 7.0 0.0 0.00 0.19 0.00 92 1016.0
20260506180432 59 90 7.0 0.0 0.00 0.19 0.00 92 1016.0
20260506180050 59 90 7.0 0.0 0.00 0.19 0.00 92 1016.0
20260506175432 60 90 7.0 0.0 0.00 0.19 0.00 92 1016.0
20260506175050 60 90 7.0 0.0 0.00 0.19 0.00 92 1016.0
20260506174432 59 90 7.0 0.0 0.00 0.20 0.00 92 1017.0
20260506174050 59 90 7.0 0.0 0.00 0.20 0.00 92 1017.0
20260506173050 58 90 7.0 0.0 0.00 0.20 0.00 92 1017.0
20260506172432 58 90 7.0 0.0 0.00 0.20 0.00 92 1019.0
20260506172051 58 90 7.0 0.0 0.00 0.20 0.00 92 1019.0
20260506171432 58 90 7.0 0.0 0.00 0.20 0.00 92 1019.0
20260506171050 58 90 7.0 0.0 0.00 0.20 0.00 92 1019.0
20260506170432 58 90 7.0 0.0 0.00 0.20 0.00 92 1019.0
20260506170051 58 90 7.0 0.0 0.00 0.20 0.00 92 1019.0
20260506165050 58 90 7.0 0.0 0.00 0.20 0.00 92 1019.0
20260506164432 58 90 7.0 0.0 0.00 0.20 0.00 92 1019.0
20260506164050 58 90 7.0 0.0 0.00 0.20 0.00 92 1019.0
20260506163432 58 90 7.0 0.0 0.00 0.20 0.00 92 1019.0
20260506163050 58 90 7.0 0.0 0.00 0.20 0.00 92 1019.0
20260506162432 59 90 7.0 0.0 0.00 0.20 0.00 92 1019.0
20260506162050 59 90 7.0 0.0 0.00 0.20 0.00 92 1019.0
20260506161432 58 90 7.0 0.0 0.00 0.20 0.00 92 1019.0
20260506161049 58 90 7.0 0.0 0.00 0.20 0.00 92 1019.0
20260506160050 58 90 7.0 0.0 0.00 0.20 0.00 92 1019.0
20260506155432 58 90 7.0 0.0 0.00 0.20 0.00 92 1019.0
20260506155050 58 90 7.0 0.0 0.00 0.20 0.00 92 1019.0
20260506154432 58 90 7.0 0.0 0.00 0.20 0.00 92 1019.0
20260506154050 58 90 7.0 0.0 0.00 0.20 0.00 92 1019.0
20260506153050 58 90 7.0 0.0 0.00 0.20 0.00 92 1019.0
20260506152432 58 90 7.0 0.0 0.00 0.20 0.00 92 1019.0
20260506152051 58 90 7.0 0.0 0.00 0.20 0.00 92 1019.0
20260506151050 58 90 7.0 0.0 0.00 0.20 0.00 92 1019.0
20260506150432 59 90 7.0 0.0 0.00 0.20 0.00 91 1019.0
20260506150050 59 90 7.0 0.0 0.00 0.20 0.00 91 1019.0
20260506145432 59 90 7.0 0.0 0.00 0.20 0.00 92 1019.0
20260506145050 59 90 7.0 0.0 0.00 0.20 0.00 92 1019.0
20260506144050 59 90 7.0 0.0 0.00 0.20 0.00 93 1019.0
20260506143432 59 90 7.0 0.0 0.00 0.20 0.00 93 1019.0
20260506143050 59 90 7.0 0.0 0.00 0.20 0.00 93 1019.0
20260506142432 59 90 7.0 0.0 0.00 0.20 0.00 94 1019.0
20260506142051 59 90 7.0 0.0 0.00 0.20 0.00 94 1019.0
20260506141432 59 90 7.0 0.0 0.00 0.20 0.00 96 1019.0
20260506141051 58 90 7.0 0.0 0.00 0.20 0.00 97 1019.0
20260506140432 57 60 5.0 0.0 0.00 0.20 0.00 99 1019.0
20260506135052 57 60 5.0 0.0 0.00 0.20 0.00 99 1019.0
20260506134432 57 60 5.0 0.0 0.00 0.20 0.00 99 1019.0
20260506134050 56 60 5.0 0.0 0.00 0.20 0.00 99 1019.0
20260506133432 56 60 5.0 0.0 0.00 0.20 0.00 99 1019.0
20260506133050 56 60 5.0 0.0 0.00 0.20 0.00 99 1019.0
20260506132050 56 60 5.0 0.0 0.00 0.20 0.00 99 1019.0
20260506131432 55 60 5.0 0.0 0.00 0.20 0.00 99 1019.0
20260506131050 55 60 5.0 0.0 0.00 0.20 0.00 99 1019.0
20260506130432 55 60 5.0 0.0 0.00 0.20 0.00 99 1019.0
20260506130051 55 60 5.0 0.0 0.00 0.20 0.00 99 1019.0
20260506125050 55 60 5.0 0.0 0.00 0.20 0.00 99 1019.0
20260506124432 54 60 5.0 0.0 0.00 0.20 0.00 99 1019.0
20260506124050 54 60 5.0 0.0 0.00 0.20 0.00 99 1019.0
20260506123432 54 60 5.0 0.0 0.00 0.20 0.00 98 1019.0
20260506123050 54 60 5.0 0.0 0.00 0.20 0.00 98 1019.0
20260506122050 54 60 5.0 0.0 0.00 0.20 0.00 98 1020.0
20260506121432 54 60 5.0 0.0 0.00 0.20 0.00 98 1020.0
20260506121050 54 60 5.0 0.0 0.00 0.20 0.00 98 1020.0
20260506120432 53 0 2.0 0.0 0.00 0.20 0.00 98 1020.0
20260506120050 53 0 2.0 0.0 0.00 0.18 0.00 98 1020.0
20260506115050 53 0 2.0 0.0 0.00 0.23 0.00 98 1020.0
20260506114432 53 0 2.0 0.0 0.00 0.23 0.00 98 1020.0
20260506114050 53 0 2.0 0.0 0.00 0.23 0.00 98 1020.0